Wind_Speed
23 24 24 24 28 33 31 31 35 36 55 70 85 93 88 83 85 86 86 87 86 80 77 80 78 79 74 73 72 69 68 67 65 64 62 59 60 58 57 55 54 52 50 51
26 25 19 24 28 31 34 37 37 41 42 49 59 71 84 93 90 88 89 90 89 82 79 80 83 78 81 76 71 74 72 73 72 70 65 62 61 60 58 57 57 56 54 52
31 26 21 23 25 29 31 36 37 38 34 43 54 64 66 79 89 88 90 91 92 87 78 80 82 80 80 79 77 71 75 75 74 74 71 67 65 66 65 62 59 57 54 53
23 26 28 24 25 24 29 20 28 32 36 40 29 48 63 64 73 85 87 86 87 89 84 79 81 83 80 81 77 76 73 77 78 76 74 72 67 65 62 59 59 59 57 55
24 29 28 19 24 22 24 26 22 22 30 34 30 36 42 49 66 73 78 79 84 81 80 74 80 84 82 81 80 78 77 76 77 79 77 76 71 66 67 64 63 63 61 60
24 26 27 22 22 30 24 13 27 22 17 23 14 22 25 34 49 60 65 66 69 71 75 70 66 72 79 78 79 80 79 81 74 78 80 76 74 72 70 67 65 64 63 63
23 19 22 26 23 20 20 18 21 28 25 27 18 21 13 8 21 37 45 50 47 58 65 65 64 66 69 77 78 78 78 79 78 75 76 76 75 74 73 71 68 66 64 63
34 10 26 29 30 27 20 16 18 28 29 30 20 25 22 17 14 23 26 40 46 43 51 63 67 67 72 73 77 78 80 80 80 79 78 73 78 76 76 73 72 69 67 64
36 13 14 26 27 20 23 16 19 25 20 20 22 15 21 12 11 22 32 41 42 41 48 60 61 61 66 72 72 71 71 77 79 77 80 81 74 74 77 76 75 72 71 68
29 17 16 20 23 20 20 24 24 14 14 24 21 13 7 14 15 16 28 33 37 40 45 48 56 54 58 67 72 71 69 70 74 76 75 77 76 71 71 75 75 73 72 71
28 20 15 19 23 24 23 21 18 18 11 16 14 11 13 17 14 14 26 36 48 53 49 45 48 50 53 61 66 69 68 68 67 68 69 73 76 74 70 70 73 72 71 69
24 18 15 15 18 25 31 30 16 12 7 10 14 13 13 19 4 6 24 42 42 41 41 39 42 46 51 55 58 64 66 67 66 67 67 66 68 70 70 69 69 67 65 64
30 17 16 10 22 27 28 22 13 9 3 3 10 10 11 17 17 8 9 24 42 42 43 43 43 44 46 49 57 58 60 64 65 65 65 64 65 66 66 66 66 67 66 65
26 17 16 18 24 29 24 23 14 9 4 4 6 7 12 11 13 12 9 12 9 19 43 46 42 42 41 41 40 49 55 60 61 63 65 64 65 65 66 66 66 66 68 69
26 13 10 14 19 21 19 22 13 5 3 3 6 9 10 4 5 4 4 10 13 14 11 15 29 40 43 43 44 41 43 50 55 60 63 64 65 66 66 67 67 68 69 69
23 14 7 9 13 16 16 15 17 12 8 14 7 7 6 3 3 2 3 3 6 15 19 19 21 24 26 29 35 39 41 43 48 53 57 62 65 66 66 68 69 69 70 71
22 16 7 7 8 13 13 9 9 9 6 6 6 6 10 8 7 7 12 8 6 11 12 15 22 26 30 32 34 37 39 42 45 47 50 54 58 62 65 66 67 69 70 71
22 18 11 7 6 8 10 7 7 7 4 2 3 5 7 5 8 10 10 8 7 10 14 16 22 25 29 33 34 34 34 35 37 41 45 49 51 52 55 59 63 65 68 72
17 17 14 10 10 6 4 6 7 7 8 8 7 6 4 3 0 5 7 8 8 8 13 16 20 28 24 29 32 34 36 35 35 36 38 42 43 44 46 48 52 57 60 65
18 16 15 13 12 12 10 9 8 4 3 3 4 4 6 7 8 9 7 5 4 4 3 7 11 17 24 30 33 34 36 36 40 39 39 39 40 39 39 39 41 45 50 55
14 16 15 15 13 14 12 12 11 9 8 6 6 4 2 4 5 8 8 6 6 5 6 6 7 10 15 20 25 29 32 35 38 41 45 46 46 48 47 48 47 46 45 48
18 18 17 15 14 13 12 13 12 13 12 11 11 11 10 10 11 11 10 9 10 11 12 14 13 13 14 17 21 24 25 30 34 39 42 44 46 48 54 54 51 48 43 47
18 19 19 20 16 15 13 11 10 10 10 11 10 11 12 13 14 14 14 15 14 16 17 18 21 21 20 20 20 21 23 24 26 30 36 38 42 45 44 44 48 50 45 42
19 19 21 19 20 17 14 13 11 10 9 7 7 8 9 11 12 14 15 16 17 19 21 23 25 26 26 25 25 25 25 25 26 28 29 31 33 35 41 44 44 47 43 38
18 19 20 19 20 22 19 16 15 13 10 10 9 9 10 12 14 16 17 17 19 21 22 23 24 26 27 28 28 27 27 27 27 28 28 27 28 30 33 36 41 44 46 40
17 21 20 19 19 22 22 20 18 17 15 15 14 13 14 16 18 19 20 21 24 25 27 28 29 32 32 32 32 32 31 31 31 30 30 29 27 27 28 31 33 34 38 39
Wind_Direction
337 335 322 305 288 285 282 279 276 265 251 245 241 241 238 239 238 237 238 238 240 237 233 233 229 232 229 232 226 228 228 230 231 232 231 231 233 234 235 236 235 234 234 233
340 327 306 300 291 283 273 275 276 264 260 247 242 244 242 235 232 234 234 237 238 234 233 232 230 229 231 229 229 225 225 227 230 230 230 230 231 234 234 234 235 234 233 234
340 337 319 315 319 305 296 283 280 279 273 255 247 241 243 239 235 235 234 235 236 232 231 230 230 227 231 230 231 230 227 226 230 231 230 231 230 231 232 233 235 237 235 235
329 333 326 321 323 312 316 313 286 277 274 273 263 258 242 242 237 236 235 236 238 236 232 228 229 227 226 229 229 230 231 229 228 230 231 230 232 232 236 237 236 236 237 237
327 330 328 328 315 317 332 320 319 289 273 276 269 257 255 247 237 236 237 240 240 237 237 234 231 230 226 226 229 228 230 229 230 229 230 230 229 231 231 233 235 235 235 235
316 327 324 326 330 336 306 299 304 308 306 307 350 284 274 260 244 241 242 238 240 241 240 235 236 235 230 229 229 230 230 232 228 232 233 232 232 230 231 232 235 237 237 238
303 319 329 337 328 357 342 288 298 298 293 306 320 306 340 311 251 245 242 240 240 244 236 234 233 231 230 229 227 227 232 233 233 232 234 236 233 233 235 233 232 236 239 240
331 286 347 349 330 335 348 357 346 312 294 300 296 276 294 297 253 221 221 211 227 236 236 231 228 226 225 226 227 227 228 232 234 233 233 231 235 235 234 235 235 234 236 239
316 310 347 342 335 338 326 323 291 292 302 305 315 300 279 269 273 246 208 207 213 225 225 228 229 228 227 227 228 228 230 233 236 235 237 238 235 233 238 238 237 236 235 236
326 294 328 339 332 337 331 340 331 292 304 302 311 320 272 290 256 262 224 206 201 216 218 231 231 231 228 227 228 228 229 231 233 235 236 240 244 247 242 236 241 242 242 241
325 306 319 334 327 336 329 339 325 317 276 312 325 317 327 329 269 252 218 190 197 208 221 228 229 231 228 229 228 228 229 232 233 234 236 238 240 242 244 250 246 236 237 241
337 321 318 332 323 346 340 338 321 317 263 264 303 330 8 7 18 214 204 204 207 206 211 218 224 222 225 228 230 230 229 229 232 235 235 235 238 241 242 244 247 252 253 248
338 332 315 313 335 341 337 1 360 344 237 279 295 289 336 5 15 86 118 198 211 207 204 210 207 215 220 226 229 231 232 233 233 233 235 234 234 237 239 240 241 244 247 248
330 325 319 322 334 345 349 7 19 39 108 233 268 288 338 5 19 20 113 111 142 219 222 215 213 215 218 221 228 232 233 234 235 236 236 236 235 235 237 239 240 240 241 244
331 311 310 314 339 345 341 356 12 32 346 279 282 285 345 344 70 337 55 115 138 156 180 223 230 230 228 228 230 231 230 231 234 237 237 238 237 236 236 238 239 240 241 241
336 321 289 305 339 345 352 355 353 344 329 338 345 332 338 346 169 258 259 307 208 194 197 209 219 220 221 223 223 223 227 229 231 233 234 236 238 239 238 239 239 240 240 241
340 335 301 301 332 355 351 360 356 359 333 331 338 331 322 312 284 252 277 292 233 241 240 232 227 228 231 225 225 229 232 231 231 232 234 235 237 237 237 238 239 240 240 241
341 337 323 302 338 3 6 348 6 27 17 327 318 346 332 304 269 284 285 279 273 266 250 245 233 231 226 228 230 231 232 232 234 237 237 237 239 240 240 239 238 239 240 241
326 333 321 309 293 300 313 347 15 28 43 51 58 67 55 37 334 232 261 264 272 263 255 249 243 235 238 229 228 233 233 232 235 239 237 236 237 239 241 243 245 243 242 241
306 316 327 307 291 286 280 286 308 343 353 63 56 52 60 50 46 41 24 28 11 357 325 282 263 248 242 237 240 240 238 238 237 237 238 236 235 236 237 240 243 246 246 245
320 298 302 315 303 282 276 275 285 287 294 284 287 270 312 326 328 327 336 337 325 309 300 309 316 288 268 255 250 249 248 247 248 247 242 239 239 242 246 248 249 249 250 249
321 324 291 287 296 293 280 277 271 272 270 271 276 271 270 276 278 279 279 291 299 299 295 282 280 282 285 273 255 253 256 253 250 248 248 249 250 250 249 248 248 246 247 249
311 320 315 277 276 282 282 280 267 260 257 257 259 264 270 273 275 278 278 280 280 276 279 278 277 276 271 268 267 262 258 256 255 252 251 253 251 248 247 249 248 246 243 243
300 311 318 289 265 264 268 271 269 256 248 243 255 265 269 274 276 276 277 280 282 282 278 274 271 271 270 266 263 262 263 264 264 260 259 257 255 253 248 246 244 247 251 253
291 298 318 307 267 254 257 258 262 258 245 252 255 269 276 278 277 278 279 282 282 278 275 275 275 273 271 270 267 263 262 260 260 263 265 262 260 256 249 247 247 246 252 250
281 291 313 311 279 257 256 260 262 260 260 261 262 267 276 282 285 287 289 289 285 283 279 276 273 275 274 272 269 268 265 261 259 257 261 264 263 259 257 251 247 243 247 246
Height
5434 5428 5424 5422 5419 5415 5412 5411 5409 5411 5421 5422 5427 5431 5443 5463 5474 5483 5490 5496 5508 5524 5543 5554 5565 5572 5583 5591 5602 5611 5621 5630 5636 5643 5649 5657 5662 5668 5674 5681 5688 5694 5699 5704
5432 5424 5420 5416 5412 5410 5407 5404 5402 5403 5406 5408 5407 5407 5418 5432 5444 5454 5468 5473 5488 5506 5520 5531 5545 5557 5564 5576 5588 5596 5605 5613 5620 5629 5636 5642 5649 5656 5663 5669 5675 5682 5687 5693
5428 5424 5418 5413 5409 5404 5400 5397 5396 5395 5396 5394 5392 5390 5403 5414 5430 5438 5450 5456 5468 5482 5500 5513 5526 5541 5551 5564 5576 5585 5591 5599 5607 5615 5622 5626 5634 5641 5648 5657 5664 5672 5679 5684
5426 5421 5415 5411 5406 5402 5396 5395 5389 5387 5386 5380 5386 5375 5389 5401 5413 5422 5434 5443 5453 5467 5484 5498 5509 5522 5536 5546 5559 5568 5575 5584 5591 5597 5606 5612 5622 5633 5643 5651 5656 5662 5668 5673
5424 5417 5413 5409 5404 5399 5394 5390 5385 5381 5379 5377 5377 5372 5381 5389 5396 5408 5421 5435 5443 5456 5471 5488 5499 5506 5520 5530 5539 5550 5556 5564 5578 5583 5590 5599 5609 5619 5626 5634 5640 5647 5654 5659
5418 5416 5410 5405 5401 5394 5387 5384 5381 5378 5377 5371 5372 5373 5374 5379 5390 5399 5407 5422 5433 5444 5459 5476 5485 5493 5504 5518 5524 5532 5539 5549 5564 5571 5577 5587 5598 5606 5612 5622 5629 5636 5642 5648
5417 5414 5408 5402 5397 5393 5386 5382 5377 5376 5374 5371 5373 5371 5370 5373 5377 5385 5395 5411 5420 5427 5445 5459 5466 5473 5485 5494 5506 5517 5524 5536 5548 5558 5567 5576 5587 5593 5600 5608 5615 5622 5629 5636
5409 5407 5404 5400 5395 5390 5387 5383 5380 5374 5372 5371 5372 5367 5369 5369 5368 5371 5382 5388 5400 5418 5426 5432 5444 5452 5465 5479 5490 5499 5509 5521 5530 5543 5553 5561 5569 5577 5585 5593 5601 5608 5616 5624
5404 5404 5404 5399 5393 5388 5384 5382 5378 5371 5370 5367 5366 5367 5364 5366 5366 5366 5368 5377 5391 5401 5409 5420 5434 5448 5459 5469 5479 5490 5499 5510 5520 5531 5540 5547 5553 5563 5572 5579 5586 5594 5601 5609
5404 5397 5400 5398 5393 5389 5383 5378 5372 5369 5368 5364 5364 5363 5362 5362 5361 5362 5366 5373 5386 5397 5407 5416 5428 5438 5446 5454 5465 5477 5486 5495 5504 5515 5525 5535 5543 5550 5557 5564 5572 5582 5589 5595
5399 5398 5398 5395 5389 5386 5381 5377 5371 5366 5366 5365 5363 5363 5362 5358 5357 5358 5362 5369 5380 5391 5400 5407 5417 5427 5435 5443 5452 5463 5474 5483 5491 5501 5511 5521 5528 5535 5542 5549 5555 5565 5573 5581
5398 5394 5392 5391 5387 5382 5376 5371 5366 5365 5366 5365 5365 5366 5363 5359 5355 5355 5357 5367 5375 5383 5393 5400 5407 5415 5423 5432 5440 5449 5460 5469 5478 5486 5496 5505 5513 5520 5528 5536 5542 5547 5555 5562
5396 5392 5388 5389 5386 5382 5376 5368 5364 5363 5363 5366 5364 5364 5363 5361 5360 5360 5359 5364 5372 5379 5386 5392 5399 5407 5414 5422 5429 5438 5447 5456 5464 5473 5481 5489 5497 5504 5511 5519 5526 5533 5540 5548
5396 5393 5389 5387 5383 5378 5374 5367 5365 5365 5366 5366 5365 5365 5365 5364 5363 5365 5364 5367 5371 5377 5383 5389 5395 5401 5407 5414 5420 5427 5434 5443 5451 5459 5466 5474 5482 5490 5496 5502 5510 5516 5523 5530
5394 5390 5387 5384 5381 5378 5375 5370 5367 5367 5366 5367 5367 5366 5367 5366 5367 5367 5369 5372 5374 5377 5382 5386 5390 5394 5400 5406 5413 5418 5424 5431 5438 5444 5452 5459 5466 5474 5481 5487 5494 5500 5507 5513
5392 5387 5385 5383 5381 5379 5374 5372 5368 5366 5366 5365 5365 5365 5367 5367 5368 5369 5371 5373 5375 5379 5381 5385 5388 5391 5394 5399 5404 5410 5415 5420 5426 5431 5437 5443 5450 5458 5465 5471 5478 5484 5490 5497
5390 5385 5382 5382 5380 5378 5376 5374 5372 5368 5366 5366 5366 5366 5366 5367 5368 5370 5371 5372 5374 5376 5379 5381 5383 5387 5390 5394 5398 5402 5406 5411 5415 5420 5425 5430 5435 5442 5448 5454 5461 5467 5473 5479
5388 5384 5382 5381 5379 5379 5377 5375 5373 5371 5369 5368 5366 5365 5365 5366 5367 5367 5368 5370 5371 5373 5375 5377 5380 5382 5385 5388 5392 5396 5399 5403 5406 5410 5414 5418 5423 5428 5432 5438 5444 5450 5456 5462
5388 5384 5381 5379 5378 5378 5377 5376 5374 5372 5372 5370 5369 5368 5369 5368 5368 5369 5369 5370 5371 5371 5372 5374 5375 5377 5379 5382 5386 5389 5392 5395 5398 5401 5404 5408 5412 5416 5420 5425 5430 5434 5439 5444
5385 5383 5381 5377 5376 5375 5374 5374 5373 5372 5372 5371 5370 5370 5370 5370 5370 5371 5371 5371 5371 5370 5370 5371 5372 5373 5375 5377 5380 5382 5384 5386 5389 5392 5395 5398 5402 5406 5410 5414 5418 5421 5425 5429
5382 5379 5377 5375 5373 5372 5371 5371 5370 5371 5374 5370 5370 5370 5370 5370 5370 5370 5369 5369 5369 5369 5369 5369 5369 5369 5370 5371 5372 5374 5376 5377 5379 5382 5385 5388 5391 5395 5398 5402 5405 5409 5411 5415
5378 5375 5373 5372 5371 5371 5368 5368 5368 5368 5366 5366 5366 5366 5366 5367 5366 5366 5365 5364 5364 5364 5364 5365 5365 5365 5365 5365 5366 5366 5367 5368 5369 5371 5373 5376 5378 5381 5384 5388 5391 5395 5398 5401
5374 5371 5369 5368 5368 5366 5365 5364 5363 5363 5363 5363 5363 5363 5363 5362 5362 5361 5361 5361 5360 5360 5360 5359 5360 5360 5360 5360 5360 5360 5360 5360 5360 5361 5362 5364 5365 5368 5371 5374 5378 5382 5385 5388
5367 5366 5363 5361 5362 5361 5361 5361 5360 5360 5360 5360 5359 5359 5358 5358 5358 5357 5356 5356 5355 5354 5354 5353 5353 5352 5353 5353 5352 5352 5352 5352 5352 5353 5353 5354 5354 5355 5358 5361 5365 5369 5372 5375
5361 5360 5358 5356 5355 5355 5356 5357 5357 5357 5356 5356 5355 5355 5355 5354 5353 5352 5351 5350 5349 5349 5348 5347 5346 5346 5344 5343 5343 5343 5343 5344 5344 5344 5344 5345 5345 5346 5347 5349 5352 5356 5360 5363
5354 5353 5352 5350 5348 5349 5350 5351 5351 5352 5352 5352 5351 5351 5350 5349 5348 5347 5346 5345 5344 5342 5341 5339 5338 5336 5334 5333 5333 5333 5334 5334 5334 5334 5334 5335 5336 5337 5338 5339 5341 5343 5347 5350